Jackson, MI

7:29 AM EDT on September 17, 2019 (GMT -0400)
Jackson County-Reynolds

Weather History for KJXN - July, 2019

Change the Weather History Date:

Wednesday, July 17, 2019

  Actual Average Record
Temperature  
Mean Temperature 80 °F 71 °F  
Max Temperature 89 °F 82 °F 100 °F (2012)
Min Temperature 71 °F 60 °F 51 °F (1966)
Degree Days  
Heating Degree Days 0 0  
Month to date heating degree days 0 1  
Since 1 June heating degree days 58 56  
Since 1 July heating degree days 0 1  
Cooling Degree Days 15 7  
Month to date cooling degree days 172 117  
Year to date cooling degree days 275 280  
Since 1 June cooling degree days 265 243  
Growing Degree Days 30 (Base 50)    
Moisture  
Dew Point 72 °F    
Average Humidity 78    
Maximum Humidity 100    
Minimum Humidity 55    
Precipitation  
Precipitation 0.00 in 0.12 in 1.98 in (1969)
Month to date precipitation 1.59 1.89  
Year to date precipitation 18.31 15.76  
Sea Level Pressure  
Sea Level Pressure 29.90 in    
Wind  
Wind Speed 3 mph (NE)    
Max Wind Speed 10 mph    
Max Gust Speed 14 mph    
Visibility 9 miles    
Events      
T = Trace of Precipitation, MM = Missing Value Source: NWS Daily Summary

Daily Weather History Graph

Daily Weather History Graph

Search for Another Location

Airport or City:

Astronomy

Jul. 17, 2019 Rise Set
Actual Time 6:16 AM EDT 9:11 PM EDT
Civil Twilight 5:42 AM EDT 9:44 PM EDT
Nautical Twilight 5:00 AM EDT 10:26 PM EDT
Astronomical Twilight 4:11 AM EDT 11:15 PM EDT
Moon 9:58 PM EDT 6:47 AM EDT
Length of Visible Light 16h 01m
Length of Day
14h 55m
Waxing Gibbous, 99% of the Moon is Illuminated
Jul 17
Waxing Gibbous
Jul 24
Last Quarter
Jul 31
New
Aug 7
First Quarter
Aug 15
Full

Hourly Weather History & Observations

Time (EDT) Temp. Heat Index Dew Point Humidity Pressure Visibility Wind Dir Wind Speed Gust Speed Precip Events Conditions
12:56 AM 71.1 °F - 71.1 °F 100% 29.90 in 10.0 mi SSE 4.6 mph - N/A   Scattered Clouds
1:05 AM 72.0 °F - 71.1 °F 97% 29.91 in 10.0 mi SSE 3.5 mph - N/A   Mostly Cloudy
1:37 AM 72.0 °F - 71.1 °F 97% 29.90 in 10.0 mi Calm Calm - N/A   Scattered Clouds
1:56 AM 72.0 °F - 71.1 °F 97% 29.89 in 10.0 mi Calm Calm - N/A   Scattered Clouds
2:07 AM 72.0 °F - 71.1 °F 97% 29.91 in 10.0 mi SSE 3.5 mph - N/A   Mostly Cloudy
2:47 AM 72.0 °F - 71.1 °F 97% 29.91 in 10.0 mi SSE 5.8 mph - N/A   Mostly Cloudy
2:56 AM 72.0 °F - 72.0 °F 100% 29.89 in 10.0 mi Calm Calm - N/A   Mostly Cloudy
3:06 AM 72.0 °F - 71.1 °F 97% 29.91 in 10.0 mi Calm Calm - N/A   Mostly Cloudy
3:56 AM 72.0 °F - 71.1 °F 97% 29.87 in 7.0 mi Calm Calm - N/A   Overcast
4:04 AM 72.0 °F - 71.1 °F 97% 29.89 in 6.0 mi Calm Calm - N/A   Overcast
4:27 AM 72.0 °F - 72.0 °F 100% 29.89 in 8.0 mi SSW 3.5 mph - N/A   Overcast
4:56 AM 72.0 °F - 72.0 °F 100% 29.87 in 8.0 mi Calm Calm - N/A   Overcast
5:01 AM 73.0 °F - 72.0 °F 96% 29.89 in 8.0 mi Calm Calm - N/A   Overcast
5:08 AM 72.0 °F - 72.0 °F 100% 29.89 in 7.0 mi West 3.5 mph - N/A   Overcast
5:54 AM 71.6 °F - 71.6 °F 100% 29.88 in 5.0 mi Calm Calm - N/A   Overcast
5:56 AM 72.0 °F - 71.1 °F 97% 29.86 in 5.0 mi Calm Calm - N/A   Overcast
6:09 AM 72.0 °F - 72.0 °F 100% 29.89 in 8.0 mi NW 3.5 mph - N/A   Overcast
6:51 AM 73.4 °F - 71.6 °F 94% 29.89 in 4.0 mi Calm Calm - N/A   Overcast
6:56 AM 73.0 °F - 72.0 °F 96% 29.88 in 5.0 mi Calm Calm - N/A   Overcast
7:20 AM 73.0 °F - 72.0 °F 96% 29.90 in 5.0 mi NW 3.5 mph - N/A   Overcast
7:56 AM 73.0 °F - 72.0 °F 96% 29.89 in 4.0 mi NW 4.6 mph - N/A   Overcast
8:56 AM 73.9 °F - 72.0 °F 93% 29.90 in 6.0 mi Calm Calm - N/A   Overcast
9:56 AM 75.9 °F - 73.0 °F 91% 29.90 in 7.0 mi NE 5.8 mph - N/A   Overcast
10:30 AM 78.1 °F - 73.0 °F 84% 29.92 in 9.0 mi NNE 5.8 mph - N/A   Overcast
10:56 AM 79.0 °F - 73.0 °F 82% 29.91 in 10.0 mi North 3.5 mph - N/A   Overcast
11:36 AM 80.1 °F 84.2 °F 73.0 °F 79% 29.93 in 10.0 mi Variable 3.5 mph - N/A   Mostly Cloudy
11:43 AM 80.1 °F 84.2 °F 73.0 °F 79% 29.93 in 10.0 mi NE 6.9 mph - N/A   Mostly Cloudy
11:56 AM 81.0 °F 85.8 °F 73.0 °F 77% 29.91 in 10.0 mi NE 5.8 mph - N/A   Partly Cloudy
12:56 PM 84.0 °F 89.6 °F 72.0 °F 67% 29.92 in 10.0 mi East 5.8 mph - N/A   Scattered Clouds
1:20 PM 82.9 °F 88.0 °F 72.0 °F 69% 29.94 in 10.0 mi East 3.5 mph - N/A   Mostly Cloudy
1:44 PM 84.0 °F 89.6 °F 72.0 °F 67% 29.94 in 10.0 mi NNW 5.8 mph - N/A   Mostly Cloudy
1:56 PM 82.9 °F 88.0 °F 72.0 °F 69% 29.92 in 10.0 mi North 4.6 mph - N/A   Mostly Cloudy
2:56 PM 84.9 °F 90.1 °F 71.1 °F 63% 29.92 in 10.0 mi North 4.6 mph - N/A   Scattered Clouds
3:56 PM 87.1 °F 93.6 °F 72.0 °F 61% 29.90 in 10.0 mi WNW 4.6 mph - N/A   Partly Cloudy
4:56 PM 88.0 °F 92.1 °F 69.1 °F 53% 29.89 in 10.0 mi Calm Calm - N/A   Clear
5:56 PM 86.0 °F 90.7 °F 70.0 °F 59% 29.89 in 10.0 mi Variable 5.8 mph - N/A   Clear
6:56 PM 87.1 °F 92.0 °F 70.0 °F 57% 29.89 in 10.0 mi NNE 8.1 mph - N/A   Partly Cloudy
7:56 PM 84.9 °F 89.4 °F 70.0 °F 61% 29.91 in 10.0 mi NNE 5.8 mph - N/A   Clear
8:56 PM 81.0 °F 84.9 °F 71.1 °F 72% 29.91 in 10.0 mi NE 3.5 mph - N/A   Clear
9:56 PM 77.0 °F - 70.0 °F 79% 29.92 in 10.0 mi Calm Calm - N/A   Clear
10:56 PM 73.9 °F - 70.0 °F 87% 29.92 in 10.0 mi ENE 4.6 mph - N/A   Clear
11:56 PM 73.9 °F - 70.0 °F 87% 29.92 in 10.0 mi East 3.5 mph - N/A   Clear